Detroit Lakes, MN

9:09 PM CDT on September 27, 2016 (GMT -0500)
Detroit Lakes

Weather History for KDTL - February, 2013

Change the Weather History Date:

Monday, February 18, 2013

  Actual Average Record
Temperature  
Mean Temperature 15 °F -  
Max Temperature 30 °F 24 °F 51 °F (2002)
Min Temperature 0 °F 3 °F -32 °F (1945)
Degree Days  
Heating Degree Days 50    
Moisture  
Dew Point 9 °F    
Average Humidity 88    
Maximum Humidity 100    
Minimum Humidity 78    
Precipitation  
Precipitation 0.00 in - - ()
Sea Level Pressure  
Sea Level Pressure 29.71 in    
Wind  
Wind Speed 17 mph (NW)    
Max Wind Speed 30 mph    
Max Gust Speed 39 mph    
Visibility 3 miles    
Events Snow    
Averages and records for this station are not official NWS values.
T = Trace of Precipitation, MM = Missing Value Source: NWS Daily Summary

Daily Weather History Graph

Daily Weather History Graph

Search for Another Location

Airport or City:

Trip Planner

Search our weather history database for the weather conditions in past years. The results will help you decide how hot, cold, wet, or windy it might be!

Date:

Astronomy

Feb. 18, 2013 Rise Set
Actual Time 7:22 AM CST 5:53 PM CST
Civil Twilight 6:51 AM CST 6:24 PM CST
Nautical Twilight 6:15 AM CST 6:59 PM CST
Astronomical Twilight 5:40 AM CST 7:34 PM CST
Moon 11:29 AM CST (2/18) 2:13 AM CST (2/18)
Length of Visible Light 11h 33m
Length of Day
10h 31m
First Quarter, 58% of the Moon is Illuminated
Feb 18
First Quarter
Feb 25
Full
Mar 4
Last Quarter
Mar 11
New
Mar 19
First Quarter

Hourly Weather History & Observations

Time (CST) Temp. Windchill Dew Point Humidity Pressure Visibility Wind Dir Wind Speed Gust Speed Precip Events Conditions
12:16 AM 28.4 °F 19.1 °F 26.6 °F 93% 29.49 in 10.0 mi SSE 10.4 mph - N/A   Overcast
12:35 AM 30.2 °F 22.6 °F 26.6 °F 86% 29.48 in 10.0 mi SSE 8.1 mph - N/A   Overcast
12:55 AM 28.4 °F 21.2 °F 26.6 °F 93% 29.48 in 10.0 mi SSE 6.9 mph - N/A   Overcast
1:16 AM 30.2 °F 23.4 °F 26.6 °F 86% 29.49 in 10.0 mi SSE 6.9 mph - N/A   Overcast
1:35 AM 30.2 °F 23.4 °F 26.6 °F 86% 29.47 in 10.0 mi SSE 6.9 mph - N/A   Overcast
1:55 AM 30.2 °F 23.4 °F 26.6 °F 86% 29.47 in 10.0 mi South 6.9 mph - N/A   Overcast
2:16 AM 30.2 °F 22.6 °F 28.4 °F 93% 29.47 in 10.0 mi South 8.1 mph - N/A   Overcast
2:35 AM 30.2 °F 22.6 °F 26.6 °F 86% 29.46 in 10.0 mi SSE 8.1 mph - N/A   Overcast
2:55 AM 30.2 °F 22.6 °F 28.4 °F 93% 29.46 in 5.0 mi South 8.1 mph - N/A Snow Light Snow
3:16 AM 28.4 °F 21.2 °F 28.4 °F 100% 29.46 in 4.0 mi South 6.9 mph - N/A Snow Light Snow
3:35 AM 28.4 °F 22.2 °F 28.4 °F 100% 29.45 in 3.0 mi South 5.8 mph - N/A Snow Light Snow
3:55 AM 28.4 °F 24.6 °F 28.4 °F 100% 29.45 in 5.0 mi SW 3.5 mph - N/A   Overcast
4:16 AM 30.2 °F 23.4 °F 30.2 °F 100% 29.46 in 5.0 mi West 6.9 mph - N/A   Overcast
4:35 AM 30.2 °F 22.6 °F 30.2 °F 100% 29.47 in 5.0 mi West 8.1 mph - N/A   Overcast
4:55 AM 28.4 °F 15.8 °F 28.4 °F 100% 29.48 in 4.0 mi WNW 18.4 mph - N/A   Overcast
5:16 AM 26.6 °F 14.3 °F 26.6 °F 100% 29.50 in 3.0 mi WNW 16.1 mph 23.0 mph N/A   Overcast
5:35 AM 24.8 °F 11.1 °F 23.0 °F 93% 29.51 in 4.0 mi NW 18.4 mph - N/A   Overcast
6:16 AM 23.0 °F 8.0 °F 23.0 °F 100% 29.52 in 5.0 mi NW 20.7 mph 26.5 mph N/A   Overcast
6:35 AM 23.0 °F 8.7 °F 21.2 °F 93% 29.53 in 3.0 mi NW 18.4 mph 29.9 mph N/A   Overcast
6:55 AM 21.2 °F 5.6 °F 19.4 °F 93% 29.53 in 4.0 mi NW 20.7 mph 31.1 mph N/A   Overcast
7:16 AM 19.4 °F 2.5 °F 17.6 °F 93% 29.54 in 1.2 mi NW 23.0 mph 33.4 mph N/A   Overcast
7:35 AM 17.6 °F 0.9 °F 15.8 °F 93% 29.55 in 1.8 mi NNW 20.7 mph 38.0 mph N/A   Overcast
8:16 AM 14.0 °F -5.8 °F 12.2 °F 93% 29.58 in 0.8 mi NNW 26.5 mph 38.0 mph N/A Snow Light Snow
8:35 AM 14.0 °F -6.2 °F 12.2 °F 93% 29.59 in 0.8 mi NW 27.6 mph 39.1 mph N/A Snow Light Snow
8:55 AM 12.2 °F -9.3 °F 10.4 °F 92% 29.60 in 0.8 mi NNW 29.9 mph 36.8 mph N/A Snow Light Snow
9:16 AM 12.2 °F -8.6 °F 10.4 °F 92% 29.62 in 0.5 mi NW 27.6 mph 36.8 mph N/A Snow Light Snow
9:35 AM 10.4 °F -10.7 °F 8.6 °F 92% 29.63 in 0.8 mi NNW 26.5 mph 34.5 mph N/A Snow Light Snow
9:55 AM 10.4 °F -10.3 °F 8.6 °F 92% 29.65 in 1.0 mi NW 25.3 mph 36.8 mph N/A   Overcast
10:16 AM 10.4 °F -11.0 °F 8.6 °F 92% 29.67 in 1.0 mi NW 27.6 mph 33.4 mph N/A Snow Light Snow
10:35 AM 10.4 °F -11.4 °F 8.6 °F 92% 29.67 in 1.0 mi NW 28.8 mph 36.8 mph N/A   Overcast
10:55 AM 10.4 °F -10.7 °F 8.6 °F 92% 29.69 in 0.8 mi NNW 26.5 mph 34.5 mph N/A   Overcast
11:16 AM 10.4 °F -11.0 °F 6.8 °F 85% 29.69 in 0.8 mi NNW 27.6 mph 34.5 mph N/A Snow Light Snow
11:35 AM 10.4 °F -11.0 °F 6.8 °F 85% 29.70 in 1.0 mi NNW 27.6 mph 36.8 mph N/A Snow Light Snow
11:56 AM 10.4 °F -9.5 °F 6.8 °F 85% 29.73 in 1.0 mi NW 23.0 mph 33.4 mph N/A Snow Light Snow
12:15 PM 8.6 °F -12.3 °F 5.0 °F 85% 29.73 in 1.0 mi NNW 24.2 mph 34.5 mph N/A Snow Light Snow
12:35 PM 8.6 °F -13.8 °F 5.0 °F 85% 29.74 in 0.5 mi NW 28.8 mph 39.1 mph N/A Snow Light Snow
12:55 PM 8.6 °F -12.3 °F 5.0 °F 85% 29.74 in 0.8 mi NW 24.2 mph 35.7 mph N/A Snow Light Snow
1:15 PM 8.6 °F -13.8 °F 5.0 °F 85% 29.74 in 0.8 mi NW 28.8 mph 35.7 mph N/A Snow Light Snow
1:36 PM 8.6 °F -13.1 °F 3.2 °F 79% 29.75 in 0.2 mi NNW 26.5 mph 36.8 mph N/A Snow Light Snow
1:55 PM 6.8 °F -14.7 °F 3.2 °F 85% 29.75 in 0.8 mi NNW 24.2 mph 34.5 mph N/A Snow Light Snow
2:15 PM 5.0 °F -18.7 °F 1.4 °F 85% 29.76 in 0.8 mi NNW 28.8 mph 35.7 mph N/A Snow Light Snow
2:36 PM 5.0 °F -17.5 °F 1.4 °F 85% 29.77 in 1.0 mi NNW 25.3 mph 35.7 mph N/A   Overcast
2:55 PM 5.0 °F -17.1 °F 1.4 °F 85% 29.78 in 1.0 mi NNW 24.2 mph 32.2 mph N/A   Overcast
3:15 PM 5.0 °F -17.5 °F 1.4 °F 85% 29.79 in 0.8 mi NNW 25.3 mph 32.2 mph N/A   Overcast
3:36 PM 3.2 °F -20.3 °F 1.4 °F 92% 29.80 in 1.0 mi NW 26.5 mph 34.5 mph N/A Snow Light Snow
3:55 PM 3.2 °F -20.3 °F -0.4 °F 85% 29.80 in 1.2 mi NNW 26.5 mph 33.4 mph N/A Snow Light Snow
4:15 PM 3.2 °F -19.9 °F -0.4 °F 85% 29.82 in 1.5 mi NNW 25.3 mph 34.5 mph N/A   Overcast
4:36 PM 3.2 °F -19.0 °F -0.4 °F 85% 29.83 in 1.2 mi NNW 23.0 mph 34.5 mph N/A   Overcast
4:55 PM 3.2 °F -20.7 °F -0.4 °F 85% 29.84 in 1.0 mi NNW 27.6 mph 35.7 mph N/A   Overcast
5:15 PM 1.4 °F -21.9 °F -0.4 °F 92% 29.85 in 1.2 mi NNW 24.2 mph 32.2 mph N/A   Overcast
5:36 PM 1.4 °F -21.9 °F -2.2 °F 85% 29.86 in 1.2 mi NNW 24.2 mph 31.1 mph N/A Snow Light Snow
5:55 PM 1.4 °F -21.9 °F -2.2 °F 85% 29.88 in 1.2 mi NNW 24.2 mph 29.9 mph N/A Snow Light Snow
6:16 PM 1.4 °F -21.4 °F -2.2 °F 85% 29.88 in 2.5 mi NNW 23.0 mph 31.1 mph N/A   Overcast
6:35 PM 1.4 °F -21.4 °F -2.2 °F 85% 29.90 in 2.5 mi NNW 23.0 mph 33.4 mph N/A   Overcast
6:55 PM 1.4 °F -21.9 °F -4.0 °F 78% 29.90 in 2.5 mi NW 24.2 mph 29.9 mph N/A   Overcast
7:16 PM -0.4 °F -24.3 °F -4.0 °F 85% 29.91 in 2.5 mi NNW 24.2 mph 32.2 mph N/A   Overcast
7:35 PM -0.4 °F -24.3 °F -4.0 °F 85% 29.91 in 3.0 mi NNW 24.2 mph 29.9 mph N/A   Overcast
7:55 PM -0.4 °F -23.8 °F -4.0 °F 85% 29.92 in 3.0 mi NNW 23.0 mph 28.8 mph N/A   Overcast
8:16 PM -0.4 °F -24.3 °F -4.0 °F 85% 29.92 in 2.5 mi NNW 24.2 mph 29.9 mph N/A   Overcast
8:35 PM -0.4 °F -23.8 °F -4.0 °F 85% 29.92 in 3.0 mi NNW 23.0 mph 31.1 mph N/A   Overcast
8:55 PM -0.4 °F -25.2 °F -4.0 °F 85% 29.92 in 2.5 mi NNW 26.5 mph 31.1 mph N/A   Overcast
9:16 PM -0.4 °F -23.3 °F -4.0 °F 85% 29.93 in 2.5 mi NNW 21.9 mph 31.1 mph N/A   Overcast
9:35 PM -0.4 °F -23.8 °F -4.0 °F 85% 29.94 in 3.0 mi NNW 23.0 mph 29.9 mph N/A   Overcast
9:55 PM -0.4 °F -24.3 °F -4.0 °F 85% 29.94 in 2.5 mi NNW 24.2 mph 28.8 mph N/A   Overcast
10:16 PM 1.4 °F -21.0 °F -4.0 °F 78% 29.95 in 2.5 mi NNW 21.9 mph 29.9 mph N/A   Overcast
10:35 PM 1.4 °F -21.9 °F -4.0 °F 78% 29.96 in 2.5 mi NNW 24.2 mph 29.9 mph N/A   Overcast
10:55 PM 1.4 °F -20.5 °F -2.2 °F 85% 29.97 in 2.5 mi NNW 20.7 mph 28.8 mph N/A   Overcast
11:16 PM 1.4 °F -21.4 °F -4.0 °F 78% 29.97 in 2.5 mi NNW 23.0 mph 27.6 mph N/A   Overcast
11:35 PM 1.4 °F -19.4 °F -4.0 °F 78% 29.98 in 2.5 mi NNW 18.4 mph 25.3 mph N/A   Overcast
11:55 PM -0.4 °F -21.7 °F -4.0 °F 85% 29.99 in 1.8 mi NNW 18.4 mph 26.5 mph N/A   Overcast